Tracking 28895 objects as of 29-May-2024
HD Live streaming from Space Station
objects crossing your sky now

TEIKYOSAT-4 (OORURI)

Track TEIKYOSAT-4 (OORURI) now!
10-day predictions
TEIKYOSAT-4 (OORURI) is classified as:


NORAD ID: 49396
Int'l Code: 2021-102B
Perigee: 551.9 km
Apogee: 569.9 km
Inclination: 97.5 °
Period: 95.7 minutes
Semi major axis: 6931 km
RCS: Unknown
Launch date: November 9, 2021
Source: Japan (JPN)
Launch site: KAGOSHIMA SPACE CENTER UNIVERSITY OF TOKYO (KSCUT)

Uplink (MHz):
Downlink (MHz): 437.450/5831.000
Beacon (MHz): 437.450
Mode: 1k2AFSK/9k6GMSK/115k2FSK CW*
Call sign: JS1YHH
Status: Active

Your satellite tracking list
Your tracking list is empty




NASA's NSSDC Master Catalog

Two Line Element Set (TLE):
1 49396U 21102B   24149.68908397  .00002246  00000-0  16544-3 0  9994
2 49396  97.4594 195.3405 0012988 347.9481  12.1433 15.04258157139827
Source of the keplerian elements: AMSAT